Flag for Canada Weather past 2 weeks in Cranbrook, British Columbia, Canada

Now
25 °F

Ice fog.


Feels Like: 20 °F
Forecast: 20 / 34 °F
Wind: 3 mph from Southwest

Location: Cranbrook

Current Time: Jan 31, 2015 at 1:52:07 AM

Latest Report: Jan 31, 2015 at 1:00 AM


Visibility: 4 mi

Pressure: 30.24 "Hg

Humidity: 86%

Dew point: 21 °F

Location of CranbrookLocation

Historic Weather in Cranbrook — Graph

°F

Cranbrook temperature yesterday

Maximum temperature yesterday: 28 °F (at 3:00 PM)
Minimum temperature yesterday: 14 °F (at 5:00 AM)
Average temperature yesterday: 21 °F

Past Weeks' High & Low Weather Summary

 TemperatureHumidityPressure
High50 °F (Jan 25, 2:00 PM)100% (Jan 18, 8:00 AM)30.58 "Hg (Jan 18, 8:00 AM)
Low7 °F (Jan 21, 7:00 AM)42% (Jan 19, 2:00 PM)29.78 "Hg (Jan 18, 8:00 AM)
Average28 °F82%30.27 "Hg
* Reported Midnight between Jan 15 and Jan 16 — Midnight between Jan 30 and Jan 31, Cranbrook, Weather by CustomWeather, © 2014

Note: Actual official high and low records may vary slightly from our data, if they occured in-between our weather recording intervals... More about our weather records

Advertising

Cranbrook weather history for previous 24 hours

 ConditionsComfort  
Time TempWeatherWind HumidityBarometerVisibility
12:00 AM
Jan 31
23 °FIce fog.5 mph93%30.27 "Hg5 mi
11:00 PM
Jan 30
23 °FLow clouds.2 mph93%30.27 "Hg10 mi
10:00 PM23 °FLow clouds.2 mph93%30.28 "Hg10 mi
9:00 PM23 °FLow clouds.No wind93%30.29 "Hg10 mi
8:00 PM21 °FPassing clouds.No wind93%30.32 "Hg15 mi
7:00 PM25 °FPassing clouds.No wind86%30.34 "Hg25 mi
6:00 PM25 °FPassing clouds.No wind86%30.33 "Hg25 mi
5:00 PM28 °FPassing clouds.3 mph80%30.34 "Hg25 mi
4:00 PM28 °FPartly sunny.7 mph80%30.35 "Hg25 mi
3:00 PM28 °FLow clouds.5 mph74%30.38 "Hg15 mi
2:00 PM25 °FLow clouds.No wind86%30.43 "Hg15 mi
1:00 PM25 °FLow clouds.2 mph86%30.47 "Hg25 mi
12:00 PM23 °FLow clouds.No wind86%30.50 "Hg15 mi
11:00 AM21 °FOvercast.2 mph86%30.51 "Hg15 mi
10:00 AM19 °FOvercast.2 mph93%30.54 "Hg25 mi
9:00 AM18 °FOvercast.2 mph93%30.53 "Hg15 mi
8:00 AM18 °FFog.No wind86%30.53 "Hg15 mi
7:00 AM14 °FPartly cloudy.2 mph85%30.52 "Hg15 mi
6:00 AM18 °FPartly cloudy.No wind93%30.52 "Hg15 mi
5:00 AM14 °FClear.No wind92%30.52 "Hg25 mi
4:00 AM16 °FClear.2 mph93%30.50 "Hg25 mi
3:00 AM18 °FClear.2 mph93%30.50 "Hg25 mi
2:00 AM18 °FClear.2 mph93%30.50 "Hg25 mi
1:00 AM19 °FClear.3 mph93%30.50 "Hg25 mi
Weather by CustomWeather, © 2014

See weather overviewHow to use our weather pages